Showing default

COSMOS 2040, 20234

Orbit data source: Space-Track

COSMOS 2040, 20234 is a payload satellite owned by UNKS (CIS) in LEO that was launched on Thu, 14 Sep 1989 UTC via a TSIKLON-3 launch vehicle from the Plesetsk Missile And Space Complex (PKMTR). Payload-class satellites include a variety of spacecraft equipped with specific instruments for various scientific and technological missions. These include communications satellites like Starlink; space stations such as the ISS; scientific satellites like the Hubble; Earth observation satellites from companies like Planet Labs, Umbra, and HawkEye 360; GPS; miniature CubeSats for education and research; and military/defense satellites.

Loading next visibility...
Identifier
20234, 1989-074C
Orbit
LEO
Country
Flag of CISCIS
Related business
Manufacturer
NPO PM
Mission
Defense Communications
Bus & Motor
STRELA-3, Unknown motor
Mass
225 kg wet, 225 kg dry
Launch date (UTC)
1989-09-14 (37 years ago)
Launch vehicle
TSIKLON-3
Launch site
Plesetsk Missile And Space Complex (PKMTR)
Object type
Payload
Rocket body
Debris
Shape & HBR
Cyl + 1 Ant, 3.5 m
Radar Cross Section
1.583 m², Large (>1 m²)

Expand to show TLE details & history
Last TLE update: 11 hours ago

TLE from 11 hours ago
0 COSMOS 2040
1 20234U 89074C   26122.18188703  .00000017  00000-0  37970-4 0  9996
2 20234  82.5825 276.7300 0005904  72.7956 100.6262 12.62626630687824
Epoch: 2026-05-02T04:21Z
TLE epoch observation values (Epoch: 2026-05-02T04:21:55.039Z)
Latitude
6.38526°
Longitude
170.31655°
Altitude
1,415.104 km
Speed
7.153 km/s
True Right ascension
06h 23m 35s
True Declination
6° 21' 02"
Sunlit
Object was in daylight at epoch
Visualization orbit readout
Latitude
Unknown
Longitude
Unknown
Altitude
Unknown
Speed
Unknown
Apparent Right ascension
Unknown
Apparent Declination
Unknown
Sunlit
N/A
Visualization observer readout
Local Sidereal Time
23:21:02
Azimuth
Unknown
Elevation
Unknown
Doppler factor
Unknown
Orbital elements
Apogee altitude
1,414.04 km
Perigee altitude
1,404.844 km
Semi-major axis
7,787.579 km
Eccentricity
0.00059
Inclination
82.5825°
RAAN
276.73°
Arg. of periapsis
72.7956°
True anomaly
100.69269°
Mean anomaly
100.6262°
Eccentric anomaly
100.65944°
Mean motion
3.1582 °/min
Orbital period
113.99 mins
BSTAR
0.00003797
Loading maneuver chart data...
Computing Atmospheric mass density...
Loading historical data...
Loading historical data...
Loading historical data...
Loading historical data...
Loading historical data...
Loading historical data...
Loading historical data...

Documentation

Showing up to 5 results
|